Preview of NWS' New Version of Forecast
This preview is not operational and should not be used for support decisions.

Regional Weather Roundup (RWR)

Issued by National Weather Service (NWS)

                            
000
ASUS46 KSEW 230810
RWRWA 

WASHINGTON REGIONAL WEATHER ROUNDUP
NATIONAL WEATHER SERVICE SEATTLE WA
100 AM PDT SUN JUN 23 2019

NOTE:"FAIR" INDICATES FEW OR NO CLOUDS BELOW 12,000 FEET WITH NO 
SIGNIFICANT WEATHER AND/OR OBSTRUCTIONS TO VISIBILITY.

WAZ507-509-555>559-230900-
SEATTLE, TACOMA, EVERETT, AND VICINITY
  
CITY           SKY/WX    TMP DP  RH WIND       PRES   REMARKS
EVERETT        CLOUDY    54  51  90 N7        30.18F                  
BOEING FIELD   CLOUDY    59  51  75 VRB3      30.17S                  
RENTON         CLOUDY    61  53  75 SW9       30.17S HAZE             
SEATAC AIRPORT CLOUDY    59  52  77 SW9       30.18S                  
JBLM-MCCHORD   CLOUDY    59  58  95 W8        30.18F                  
PUYALLUP       CLOUDY    59  55  88 CALM      30.19S                  
BREMERTON      MOCLDY    57  53  86 E3        30.18S                  
JBLM-FT LEWIS  CLOUDY    58  58  99 S8        30.18S                  
TACOMA NARROWS CLOUDY    56  52  86 SW7       30.19S                  
$$
 
WAZ001-503-506-510-514-515-230900-
NORTH INTERIOR
  
CITY           SKY/WX    TMP DP  RH WIND       PRES   REMARKS
BELLINGHAM     CLOUDY    55  49  80 S14G23    30.14S                  
FRIDAY HARBOR  CLOUDY    53  48  83 SW8       30.15S                  
EASTSOUND      CLOUDY    55  52  88 S9        30.12S                  
PORT ANGELES   PTCLDY    51  48  89 W12       30.19S                  
EDIZ HOOK      CLOUDY    52  49  90 W15       30.18S                  
PORT TOWNSEND  CLOUDY    54  50  87 NW6       30.17S                  
NAS WHIDBEY    CLOUDY    56  49  77 SW15G23   30.22S                  
ARLINGTON      CLOUDY    55  51  86 N6        30.19S                  
BURLINGTON     CLOUDY    54  50  87 S9        30.18S                  
$$
 
WAZ020-022-039-040-504-511-512-230900-
SOUTHWEST INTERIOR
  
CITY           SKY/WX    TMP DP  RH WIND       PRES   REMARKS
SHELTON        MOCLDY    56  51  84 SW10      30.16S                  
OLYMPIA        CLOUDY    57  51  80 SW8       30.19S                  
CHEHALIS       CLOUDY    57  54  88 VRB7      30.22R                  
KELSO          CLOUDY    58  54  86 NW5       30.23S                  
VANCOUVER      CLOUDY    59  51  75 NW7       30.22R                  
SCAPPOOSE, OR  CLOUDY    58  51  78 CALM      30.21S                  
PORTLAND, OR   MOCLDY    60  51  72 NW7       30.22R                  
$$
 
WAZ021-516-517-230900-
WASHINGTON COAST
  
CITY           SKY/WX    TMP DP  RH WIND       PRES   REMARKS
FORKS          CLOUDY    53  48  83 W3        30.24S                  
HOQUIAM        CLOUDY    53  51  93 NW12      30.24R                  
ASTORIA, OR    CLOUDY    55  52  89 NW12      30.25S                  
$$
 
WAZ019-023-024-040-567>569-230900-
CASCADE MOUNTAINS AND COLUMBIA GORGE
  
CITY           SKY/WX    TMP DP  RH WIND       PRES   REMARKS
STAMPEDE PASS  CLOUDY    46  44  93 W8G18     30.15S                  
TROUTDALE, OR  CLOUDY    60  52  74 CALM      30.21S                  
HOOD RIVER, OR MOSUNNY   61  46  59 W6        30.13R                  
THE DALLES, OR PTCLDY    63  48  58 W16G23    30.09R                  
$$

WAZ026-027-041>044-520-521-230900-
EAST SLOPES
  
CITY           SKY/WX    TMP DP  RH WIND       PRES   REMARKS
OMAK           CLEAR     62  41  46 N9        29.95R                  
WENATCHEE      PTCLDY    62  39  42 W18G29    29.98S                  
ELLENSBURG     PTCLDY    58  45  62 NW25G36   30.02S                  
YAKIMA         PTCLDY    61  44  53 NW12      30.03F                  
SUNNYSIDE ARPT SUNNY     62  46  54 W9        30.02                   
YAKIMA TC      FAIR      61  41  47 NW15      30.03S                  
$$

WAZ028-034-035-230900-
COLUMBIA BASIN
  
CITY           SKY/WX    TMP DP  RH WIND       PRES   REMARKS
EPHRATA        PTCLDY    63  37  38 W17G26    29.93S                  
MOSES LAKE     PTCLDY    63  40  42 W9        29.96S                  
PASCO          PTCLDY    65  43  44 SW8       30.01R                  
RICHLAND ARPT  SUNNY     63  46  52 W5        30.01                   
HERMISTON, OR  CLEAR     63  47  55 SW14G23   30.04R                  
$$

WAZ036>038-230900-
NORTHEAST WASHINGTON
  
CITY           SKY/WX    TMP DP  RH WIND       PRES   REMARKS
SPOKANE GEIGER MOCLDY    61  43  51 S6        29.95S                  
SPOKANE FELTS  MOCLDY    63  47  55 CALM      29.94F                  
FAIRCHILD AFB  PTCLDY    56  45  65 S3        29.94F                  
COEURDALENE,ID MOCLDY    60  50  69 SE7       29.96F                  
DEER PARK      MOCLDY    52  45  77 E3        29.94F                  
$$

WAZ029>033-230900-
SOUTHEAST WASHINGTON
  
CITY           SKY/WX    TMP DP  RH WIND       PRES   REMARKS
PULLMAN        CLEAR     56  46  69 VRB5      30.01S                  
LEWISTON, ID   CLEAR     63  49  60 S6        29.96S                  
WALLA WALLA    MOCLDY    62  46  55 S13       30.05R                  
PENDLETON, OR  PTCLDY    60  45  57 W23G31    30.05R                  
$$